Location: Newark
(40.7060°N, 73.9980°W)
Time: 23:30:03
(UTC+00:00)

X-37B - Pass Details

Date: 13 March 2021
Orbit: 380 x 394 km, 45.0° (Epoch: 07 April)

Event Time Altitude Azimuth Distance (km) Brightness Sun altitude
Rises 23:28:27 0° 234° (SW) 2,257 5.4 -6.0°
Reaches altitude 10° 23:30:31 10° 229° (SW) 1,408 4.2 -6.4°
Maximum altitude 23:33:37 52° 152° (SSE) 488 0.9 -7.0°
Drops below altitude 10° 23:36:45 10° 74° (ENE) 1,422 2.8 -7.6°
Enters shadow 23:36:54 - 74° (ENE) 1,481 2.9 -7.6°
